AURA

Last updated on Wed Mar 04 2026 00:02:31 GMT+0000 (Coordinated Universal Time)

1 28376U 04026A 26062.60227585 .00001361 00000+0 28655-3 0 9998 2 28376 98.3301 18.2661 0001026 78.0065 282.1250 14.61131635150794
UTC large
Height (km)
Speed (km/s)
/
Latitude / Longitude
Inclination (degrees)
Orbital Period (minutes)
Azimuth
Elevation
Range (km)
Doppler Factor

Next 0 passes for location: London (51.5072 / 0.1276)

Sorry there are no passes over London.